Regional Weather Roundup
Issued by NWS

Home | Current Version | Previous Version | Graphics & Text | Print | Product List | Glossary On
Versions: 1 2 3 4 5 6 7 8 9 10 11 12 13 14 15 16 17 18 19 20 21 22 23 24 25 26 27 28 29 30 31 32 33 34 35 36 37 38 39 40 41 42 43 44 45 46 47 48 49 50
000
ASUS43 KMPX 020901
RWRMN
WEATHER ROUNDUP FOR MINNESOTA
NATIONAL WEATHER SERVICE TWIN CITIES/CHANHASSEN MN
300 AM CST FRI DEC 02 2016


NOTE: "FAIR" INDICATES FEW OR NO CLOUDS BELOW 12,000 FEET WITH NO
SIGNIFICANT WEATHER AND/OR OBSTRUCTIONS TO VISIBILITY. N/A MEANS
CURRENT SKY AND/OR WEATHER CONDITIONS ARE NOT AVAILABLE.

MNZ060>063-068>070-021000-
   Twin Cities Metro

CITY           SKY/WX    TMP DP  RH WIND       PRES   REMARKS
TWIN CITIES    CLOUDY    31  21  66 NW9       30.10R WCI  23
ST PAUL        CLOUDY    31  22  69 NW12      30.11R WCI  22
CRYSTAL        CLOUDY    31  20  63 NW8       30.09R WCI  23
BLAINE         CLOUDY    34  25  69 NW6       30.09R WCI  29
LAKEVILLE      CLOUDY    30  25  80 NW10      30.09R WCI  21
EDEN PRAIRIE   CLOUDY    32  23  69 NW8       30.09R WCI  25
SOUTH ST PAUL  CLOUDY    32  22  66 NW6       30.10R WCI  26
LAKE ELMO      CLOUDY    32  23  69 N6        30.09R WCI  26
$$
MNZ001>005-007-008-013>017-022>024-027-028-021000-
   Northwest Minnesota

CITY           SKY/WX    TMP DP  RH WIND       PRES   REMARKS
BEMIDJI        CLOUDY    23  20  87 NW8       30.11R WCI  14
HALLOCK        CLOUDY    27  23  86 MISG      30.16R
ROSEAU         CLOUDY    25  19  80 NW8       30.13R WCI  16
WARROAD        CLOUDY    21  18  86 N3        30.14R
THIEF RVR FALL CLOUDY    26  21  81 NW8       30.14R WCI  18
CROOKSTON      CLOUDY    28  25  86 NW7       30.16R WCI  21
FOSSTON        CLOUDY    23  19  86 NW7       30.13R WCI  15
DETROIT LAKES  CLOUDY    27  23  86 N9G16     30.13R WCI  17
MOORHEAD       CLOUDY    28  23  80 NW13      30.16R WCI  18
PARK RAPIDS    CLOUDY    24  17  74 N7        30.10R WCI  16
$$
MNZ006-009>011-018-025>026-021000-
   North Central Minnesota

CITY           SKY/WX    TMP DP  RH WIND       PRES   REMARKS
BAUDETTE       CLOUDY    24  20  84 W9        30.10R WCI  14
FLAG ISLAND    CLOUDY    21  19  93 W12       30.12R WCI   9
INTL FALLS     CLOUDY    26  20  77 N6        30.08R WCI  19
WASKISH        CLOUDY    25  21  86 NW6       30.11R WCI  18
BIG FORK       CLOUDY    27  21  80 N5        30.08R WCI  21
LONGVILLE      CLOUDY    27  21  80 NW6       30.09R WCI  20
GRAND RAPIDS   CLOUDY    26  22  84 N9        30.09R WCI  17
CRANE LAKE     CLOUDY    25  21  86 N5        30.09R WCI  19
ORR            CLOUDY    25  19  80 NW5       30.03R WCI  19
COOK           CLOUDY    25  21  86 NW3       30.06R
$$
MNZ012-019>021-037-021000-
   Northeast Minnesota

CITY           SKY/WX    TMP DP  RH WIND       PRES   REMARKS
DULUTH         CLOUDY    28  23  81 N10       30.03R WCI  19
ELY            CLOUDY    23  21  93 NW3       30.04R
HIBBING        CLOUDY    25  21  85 N12       30.05R WCI  14
EVELETH        CLOUDY    28  23  82 NW5       30.05R WCI  22
DULUTH HARBOR  CLOUDY    32  25  74 CALM      30.08R
TWO HARBORS    CLEAR     28  23  80 CALM      30.02R
SILVER BAY     CLOUDY    27  23  86 NW6       30.01R WCI  20
GRAND MARAIS     N/A     29  21  72 CALM      30.01R
G MARAIS ARPRT PTCLDY    19  16  86 NW8G18    29.94S WCI   9
$$
MNZ029>031-032-039>041-046>048-054>057-064-021000-
   West Central Minnesota

CITY           SKY/WX    TMP DP  RH WIND       PRES   REMARKS
FERGUS FALLS   CLOUDY    27  21  80 N7        30.17R WCI  19
WHEATON        CLOUDY   N/A N/A N/A NW8       30.17R
MORRIS         CLOUDY    28  25  86 N9        30.13R WCI  20
ALEXANDRIA     CLOUDY    27  21  78 N10       30.11R WCI  17
ELBOW LAKE     CLOUDY    27  22  84 NW9       30.13R WCI  17
WADENA         CLOUDY    25  19  80 N3        30.10R
GLENWOOD       CLOUDY    27  23  86 NW10      30.11R WCI  17
APPLETON       CLOUDY    30  23  74 N6        30.14R WCI  24
BENSON         CLOUDY    28  23  80 N7        30.13R WCI  21
ORTONVILLE     CLOUDY    28  25  86 NW3       30.15R
MADISON        CLOUDY    32  30  93 NW12      30.14R FOG     WCI  23
WILLMAR        CLOUDY    30  25  80 N8        30.13R WCI  23
$$
MNZ033>034-036-042>043-049>051-058-059-021000-
   Central Minnesota

CITY           SKY/WX    TMP DP  RH WIND       PRES   REMARKS
ST CLOUD       CLOUDY    29  22  75 N9        30.10R WCI  20
PAYNESVILLE    CLOUDY    30  23  75 NW9       30.11R WCI  21
AITKIN         CLOUDY    30  21  69 NW3       30.07R
PINE RIVER     CLOUDY    25  21  86 NW7       30.13R WCI  17
BRAINERD       CLOUDY    27  21  78 NW8       30.09R WCI  19
STAPLES        CLOUDY    25  19  80 NW9       30.10R WCI  15
LONG PRAIRIE   CLOUDY    28  21  74 NW3       30.11R
LITTLE FALLS   CLOUDY    30  21  69 NW7       30.10R WCI  23
LITCHFIELD     CLOUDY    30  25  80 NW8       30.11R WCI  23
BUFFALO        CLOUDY    31  22  69 NW6       30.11R WCI  25
MAPLE LAKE     CLOUDY    31  25  77 NW7       30.11R WCI  24
$$
MNZ037-044-045-052-053-021000-
   East Central Minnesota

CITY           SKY/WX    TMP DP  RH WIND       PRES   REMARKS
PRINCETON      CLOUDY    30  25  80 NW3       30.10R
MORA           CLOUDY    30  23  74 CALM      30.10R
CAMBRIDGE      CLOUDY    32  21  64 NW6       30.08R WCI  26
RUSH CITY      CLOUDY    28  23  80 CALM      30.09R
MOOSE LAKE     CLOUDY    30  23  74 NW5       30.05R WCI  25
HINCKLEY       CLOUDY    30  25  80 NW3       30.08R
CLOQUET        CLOUDY    28  21  74 NW8       30.04R WCI  20
MCGREGOR       CLOUDY    28  25  86 NW7       30.08R WCI  21
$$
MNZ071>073-080-081-089-090-097-098-021000-
   Southwest Minnesota

CITY           SKY/WX    TMP DP  RH WIND       PRES   REMARKS
MONTEVIDEO     CLOUDY    30  28  93 N9        30.15R WCI  22
GRANITE FALLS  CLOUDY    32  27  81 NW8       30.15R WCI  25
CANBY          CLOUDY    29  26  86 CALM      30.16R
MARSHALL       CLOUDY    30  26  85 NW10      30.14R WCI  21
REDWOOD FALLS  CLOUDY    31  23  72 NW8       30.12R WCI  23
OLIVIA         MOCLDY    32  27  80 N12       30.11R WCI  23
PIPESTONE      MIX PCPN  30  28  93 N6        30.10R WCI  24
WINDOM         CLOUDY    30  27  86 CALM      30.12R
WORTHINGTON    CLOUDY    30  28  92 N12       30.12R WCI  20
JACKSON        CLOUDY    30  27  86 NW10      30.12R WCI  21
TRACY          CLOUDY    31  28  89 NW10      30.13R WCI  22
SLAYTON        CLOUDY    29  27  91 NW8       30.11R WCI  21
$$
MNZ065>067-074>077-082>085-091>093-021000-
   South Central Minnesota

CITY           SKY/WX    TMP DP  RH WIND       PRES   REMARKS
MANKATO        CLOUDY    32  26  78 W13       30.11R WCI  22
NEW ULM        CLOUDY    30  27  86 NW7       30.12R WCI  23
ST JAMES       CLOUDY    30  27  86 W9        30.13R WCI  22
FAIRMONT       CLOUDY    31  26  82 NW9       30.12R WCI  23
GLENCOE        CLOUDY    32  28  83 NW7       30.10R WCI  26
FARIBAULT      CLOUDY    34  25  69 NW5       30.09R WCI  30
OWATONNA       CLOUDY    32  25  74 NW9       30.08R WCI  24
WASECA         CLOUDY    32  30  93 NW8       30.10R WCI  25
ALBERT LEA     CLOUDY    36  34  93 W8        30.09R
$$
MNZ078>079-086>088-094>096-021000-
   Southeast Minnesota

CITY           SKY/WX    TMP DP  RH WIND       PRES   REMARKS
ROCHESTER      CLOUDY    32  26  78 NW10      30.06R WCI  24
RED WING       CLOUDY    34  21  60 NW6       30.08R WCI  29
STANTON        CLOUDY    33  27  77 N3        30.08R
DODGE CENTER   CLOUDY    32  27  80 NW6       30.06R WCI  26
WINONA         CLOUDY    34  25  69 NW10      30.07R WCI  26
AUSTIN         CLOUDY    34  30  86 W9        30.07R WCI  26
PRESTON        CLOUDY    32  25  74 N9        30.06R WCI  24
$$
ABBREVIATIONS USED IN REMARKS
   TC - TEMPERATURES IN CELSIUS
  WCI - WIND CHILL INDEX
   HX - HEAT INDEX
  VSB - VISIBILITY
$$




USA.gov is the U.S. government's official web portal to all federal, state and local government web resources and services.